Regional Weather Roundup
Issued by NWS Sioux Falls, SD

Home | Current Version | Previous Version | Text Only | Print | Product List | Glossary On
Versions: 1 2 3 4 5 6 7 8 9 10 11 12 13 14 15 16 17 18 19 20 21 22 23 24 25 26 27 28 29 30 31 32 33 34 35 36 37 38 39 40 41 42 43 44 45 46 47 48 49 50
730
ASUS43 KFSD 240502
RWRFSD

WEATHER ROUNDUP FOR SE SOUTH DAKOTA/SW MINNESOTA/NW IOWA
NATIONAL WEATHER SERVICE SIOUX FALLS SD
1200 AM CDT THU AUG 24 2017

NOTE: "FAIR" INDICATES FEW OR NO CLOUDS BELOW 12,000 FEET WITH NO
SIGNIFICANT WEATHER AND OR OBSTRUCTIONS TO VISIBILITY.


SDZ038>040-050-052>070-240600-
SOUTHEAST SOUTH DAKOTA

CITY           SKY/WX    TMP DP  RH WIND       PRES   REMARKS
BROOKINGS      MOCLDY    65  60  84 SE10      30.00S
CHAMBERLAIN    CLEAR     67  63  89 E5        29.90R
HURON          PTCLDY    69  61  75 SE13      29.93S
MADISON        MOCLDY    63  63 100 SE7       30.00S
MITCHELL       CLEAR     67  61  81 SE9       29.94S
SIOUX FALLS    MOCLDY    70  60  70 S12       29.99S
WINNER         FAIR      74  60  61 S14       29.89S
YANKTON        PTCLDY    68  61  78 SE10      29.97S
$$

MNZ071-072-080-081-089-090-097-098-240600-
SOUTHWEST MINNESOTA

CITY           SKY/WX    TMP DP  RH WIND       PRES   REMARKS
FAIRMONT       CLOUDY    61  57  87 SE3       30.05S
JACKSON        CLOUDY    63  57  82 CALM      30.05R
LUVERNE        CLOUDY    63  59  88 SE5       30.02S
MARSHALL       CLOUDY    64  59  83 SE8       30.02R
MONTEVIDEO     MOCLDY    59  55  88 SE7       30.04R
PIPESTONE      PTCLDY    64  61  88 S7        30.02S
REDWOOD FALLS  PTCLDY    61  56  83 E7        30.04R
TRACY          CLOUDY    64  60  85 E3        30.04R
WINDOM         CLOUDY    64  55  72 CALM      30.04S
WORTHINGTON    CLOUDY    65  60  84 S6        30.04S
$$

IAZ001>003-012>014-020>022-031-032-NEZ013-014-SDZ071-240600-
NORTHWEST IOWA

CITY           SKY/WX    TMP DP  RH WIND       PRES   REMARKS
CHEROKEE       CLOUDY    66  61  84 S5        30.03F
DENISON        CLOUDY    64  61  88 SE6       30.06F
ESTHERVILLE    CLOUDY    62  61  96 S6        30.04S
ORANGE CITY    CLOUDY    66  61  82 S6        30.03R
SHELDON        CLOUDY    63  61  94 SE5       30.01S
SIOUX CITY     CLOUDY    66  62  87 SE9       30.02S
SPENCER        CLOUDY    64  61  90 S5        30.05R
STORM LAKE     CLOUDY    64  59  82 SE7       30.05S
$$

ABBREVIATIONS USED IN REMARKS
   TC - TEMPERATURE IN CELSIUS
  WCI - WIND CHILL INDEX
   HX - HEAT INDEX
  VSB - VISIBILITY





USA.gov is the U.S. government's official web portal to all federal, state and local government web resources and services.